Regional Weather Roundup
Issued by NWS State College, PA

Home | Current Version | Previous Version | Text Only | Print | Product List | Glossary Off
Versions: 1 2 3 4 5 6 7 8 9 10 11 12 13 14 15 16 17 18 19 20 21 22 23 24 25 26 27 28 29 30 31 32 33 34 35 36 37 38 39 40 41 42 43 44 45 46 47 48 49 50

000
ASUS41 KCTP 030803
RWRCTP

REGIONAL WEATHER ROUNDUP
NATIONAL WEATHER SERVICE STATE COLLEGE PA
300 AM EST SAT DEC 03 2016

Note: "fair" indicates few or no clouds below 12,000 feet with no
significant weather and/or obstructions to visibility.

* = STATION THAT DOES NOT REPORT PRECIPITATION /E.G. RAIN...SNOW...ETC/
    THUNDER OR FOG.

PAZ002>004-007>009-013>016-020>023-029>032-030900-
WESTERN PENNSYLVANIA

CITY           SKY/WX    TMP DP  RH WIND       PRES   REMARKS
ERIE           CLOUDY    41  34  76 W14G24    30.17R
MEADVILLE      NOT AVBL
FRANKLIN*        N/A     34  27  75 W14       30.15S
NEW CASTLE     CLOUDY    36  29  75 W8        30.21R
BEAVER COUNTY  NOT AVBL
BUTLER*        CLOUDY    36  28  75 W10       30.21R
PITTSBURGH INT CLOUDY    37  30  75 W5        30.20S
PITTSBURGH     NOT AVBL
INDIANA*       CLOUDY    36  30  80 W12G20    30.17S
LATROBE        CLOUDY    36  28  75 SW12      30.21R
WASHINGTON CO* CLOUDY    34  27  75 W8        30.23R
$$

PAZ004>006-010>012-017>019-024>028-033>037-041-042-045-046-049>053-030900-
CENTRAL PENNSYLVANIA

CITY           SKY/WX    TMP DP  RH WIND       PRES   REMARKS
BRADFORD       LGT SNOW  33  32  96 W14G23    30.04R FOG
DUBOIS         CLOUDY    34  29  82 W17G25    30.08R
CLEARFIELD     MIX PCPN  36  31  82 W9        30.09R
JOHNSTOWN      CLOUDY    32  28  85 W17G26    30.10R
ALTOONA        CLOUDY    37  29  72 W13       30.11R
STATE COLLEGE  CLOUDY    37  31  77 W17G23    30.06F
WILLIAMSPORT   LGT RAIN  39  34  82 NW12G18   30.03S
SELINSGROVE    CLOUDY    42  32  67 NW12G20   30.05
FT INDIANTOWN  CLOUDY    42  29  60 W14G29    30.02R
CAPITAL CITY   NOT AVBL
HARRISBURG     NOT AVBL
YORK           CLOUDY    42  30  62 W8        30.07
$$

PAZ038>040-043-044-047-048-054-055-060>062-067>071-030900-
EASTERN PENNSYLVANIA

CITY           SKY/WX    TMP DP  RH WIND       PRES   REMARKS
SCRANTON       CLOUDY    38  28  67 W9        29.97R
MOUNT POCONO   CLOUDY    33  26  75 NW18G29   29.90R
ALLENTOWN      CLOUDY    41  32  70 W9        30.00R
QUAKERTOWN*    PTSUNNY   41  30  65 W7G16     29.99S
READING        CLOUDY    43  29  57 W12G22    30.01R
LANCASTER      MOCLDY    41  31  67 W12       30.03
COATESVILLE    CLOUDY    41  30  65 W10       30.02F
POTTSTOWN      CLOUDY    42  29  59 W9G16     30.02R
BLUE BELL      CLOUDY    41  30  65 W7        29.99S
DOYLESTOWN     CLOUDY    43  31  62 W9        29.98R
WILLOW GROVE   NOT AVBL
NORTH PHILA    CLOUDY    44  30  57 W10G21    30.02R
PHILADELPHIA   CLOUDY    43  30  60 W16       30.03F
$$




USA.gov is the U.S. government's official web portal to all federal, state and local government web resources and services.